Location: San Martino di Castrozza
(46.2667°N, 11.8000°E)
Time: 02:04:00
(UTC+00:00)

Cosmos 2151 Rocket - Pass Details

Date: 23 April 2021
Orbit: 618 x 641 km, 82.5° (Epoch: 14 May)

Event Time Altitude Azimuth Distance (km) Brightness Sun altitude
Rises 02:32:30 0° 348° (NNW) 2,955 7.4 -15.9°
Reaches altitude 10° 02:34:45 10° 346° (NNW) 2,043 6.5 -15.6°
Maximum altitude 02:39:15 66° 265° (W) 702 3.6 -14.9°
Drops below altitude 10° 02:43:43 10° 183° (S) 2,029 5.8 -14.3°
Enters shadow 02:43:55 - 182° (S) 2,107 5.9 -14.3°
